Theta_e
325 324 325 325 326 326 325 326 327 327 329 328 328 330 329 330 333 332 334 335 343 345 347 347 345 339 349 351 351 353 354 348 347 346 345 340 337 334 332 329 327 325 321 318
326 325 325 326 326 326 325 325 327 328 328 329 329 329 329 330 330 331 331 342 348 341 341 340 335 334 352 354 354 353 352 352 349 345 342 340 338 336 332 330 326 323 320 317
325 326 326 326 326 326 326 326 327 326 327 329 328 328 329 328 329 330 333 341 344 348 340 338 334 347 348 344 345 344 344 345 342 342 341 338 336 334 332 329 324 321 318 315
325 326 327 326 325 326 326 325 324 324 325 326 328 329 332 329 330 330 338 343 343 344 343 344 345 343 341 341 341 340 338 338 338 339 338 338 336 333 329 324 321 318 316 317
325 326 327 327 326 326 326 326 326 325 325 326 326 327 329 330 332 337 345 343 341 344 344 343 339 337 336 337 335 335 333 333 333 332 333 332 331 326 323 320 318 318 318 317
325 326 327 327 327 326 325 326 328 328 327 329 327 328 328 333 334 343 342 339 338 339 337 335 333 333 333 333 332 331 330 329 328 326 326 324 323 321 318 317 318 316 314 313
326 325 326 326 326 326 325 328 330 330 329 328 328 328 330 334 342 344 341 338 337 336 335 334 333 332 332 332 330 329 327 326 325 323 321 320 319 317 317 316 315 313 313 312
326 327 325 326 326 326 326 328 332 334 332 331 331 331 334 334 342 342 339 338 337 336 335 334 333 332 332 330 329 328 326 324 323 320 318 316 317 315 314 314 314 313 311 311
325 326 327 326 326 326 327 330 328 335 334 333 333 336 336 337 338 339 339 337 338 336 335 334 333 332 331 329 328 326 324 321 319 318 318 317 315 314 313 312 311 310 310 309
328 331 328 327 326 326 327 329 332 332 336 337 334 337 335 340 338 338 339 339 338 337 335 334 333 331 329 327 325 324 322 320 318 316 315 315 314 312 311 310 310 310 309 308
326 333 328 327 326 326 326 326 330 335 334 338 336 335 341 339 338 338 338 340 338 336 335 334 332 329 327 325 324 322 320 318 317 315 314 313 312 310 310 310 309 309 309 308
327 334 330 329 327 326 326 328 329 334 338 337 339 339 332 339 336 339 336 341 337 335 334 333 330 329 327 325 323 321 319 317 315 313 313 313 311 311 310 310 309 309 309 308
331 333 332 331 331 327 326 326 329 335 342 341 340 338 337 334 337 337 336 340 337 336 334 332 330 328 327 324 322 320 318 315 313 312 312 311 312 313 312 311 308 309 308 307
335 337 336 337 332 329 330 325 327 335 336 336 335 335 336 337 338 337 337 340 337 336 335 332 330 329 326 324 322 319 316 313 312 310 311 312 312 311 311 311 309 307 308 308
336 340 333 329 330 330 329 329 328 329 330 334 334 334 337 341 338 336 337 340 338 336 334 333 332 330 326 324 321 318 316 313 310 311 311 311 311 311 310 310 310 308 308 308
336 337 335 329 329 329 330 330 331 329 327 330 332 335 337 340 337 337 337 337 339 336 335 333 331 329 326 324 320 318 315 312 310 310 311 311 311 309 309 309 309 308 308 308
339 335 338 335 330 330 331 329 329 331 330 330 333 339 337 338 339 335 333 334 340 338 336 334 332 330 327 323 319 318 314 310 310 311 311 310 309 309 309 309 308 308 308 308
337 341 337 338 335 336 330 330 328 329 329 331 335 334 336 337 337 334 331 330 339 338 336 334 331 329 324 320 319 314 310 309 311 311 310 310 309 308 308 308 309 308 308 308
337 341 336 339 337 333 331 332 331 330 332 331 333 332 332 335 335 335 334 336 338 337 335 332 329 325 321 319 314 312 308 311 311 311 310 309 308 308 308 308 307 307 308 308
337 334 341 337 338 341 336 335 334 333 334 332 333 333 333 333 334 338 335 335 334 332 331 329 325 322 319 314 311 310 313 310 311 310 309 309 308 308 308 308 307 307 307 307
339 339 346 339 338 339 337 333 333 336 336 335 333 332 333 340 341 338 335 334 331 330 328 325 322 319 315 311 311 310 310 312 309 309 309 308 308 308 307 306 306 306 307 306
339 340 342 341 341 340 333 332 334 336 334 332 339 339 340 338 335 334 332 332 329 327 323 321 319 315 312 310 310 311 310 309 309 308 309 309 308 307 307 306 307 306 307 309
339 335 337 337 335 337 335 339 338 338 334 330 337 338 336 334 333 332 331 329 326 322 321 318 315 313 310 310 310 311 310 310 309 310 310 310 309 308 307 307 307 308 304 306
334 331 331 335 336 334 336 333 333 331 332 331 333 336 334 334 331 330 328 326 324 321 318 316 314 311 310 309 311 311 309 310 310 310 309 307 307 305 305 305 306 305 305 305
332 333 332 333 336 337 335 334 333 331 331 331 330 330 332 331 330 329 327 325 322 320 318 315 312 311 311 313 311 310 309 310 310 309 309 308 306 305 305 305 305 305 305 304
334 335 337 335 337 340 334 332 330 331 331 330 329 329 330 329 329 327 326 323 321 319 316 313 312 314 313 312 310 309 310 309 309 309 309 308 305 305 305 305 306 305 303 303
Wind_Speed
15 12 15 18 17 20 21 15 12 15 12 12 14 10 14 12 11 8 11 12 10 19 16 40 46 47 17 11 15 20 21 20 14 16 12 9 7 4 4 1 1 4 8 9
15 17 19 18 17 17 17 11 16 15 6 8 8 12 14 12 10 10 8 13 15 19 19 31 22 25 9 25 18 15 16 14 11 13 11 4 6 6 6 7 1 6 9 6
19 20 21 19 17 10 11 13 15 16 13 9 7 13 17 19 13 3 3 10 14 18 14 13 20 11 25 25 20 19 17 13 13 10 7 7 7 6 5 2 4 3 3 9
20 22 17 15 17 10 14 16 15 16 15 12 16 13 16 19 14 10 6 9 11 11 18 16 14 13 18 18 16 17 16 15 12 7 4 2 4 5 2 3 3 7 4 3
21 23 20 14 15 12 16 15 13 16 15 15 19 11 12 11 16 13 13 9 6 10 15 15 14 15 14 14 16 18 17 15 11 10 10 7 4 6 1 4 6 10 9 4
21 20 17 20 16 16 15 11 13 8 11 13 17 16 16 11 14 15 13 10 8 10 13 14 16 16 15 15 16 14 13 12 10 9 6 9 7 6 6 7 9 9 10 8
21 22 19 12 12 15 15 10 8 11 11 13 17 17 14 12 22 21 18 14 12 11 12 12 11 14 14 14 13 12 11 11 10 10 10 7 5 5 4 7 8 10 10 10
19 18 22 14 18 17 17 15 11 11 11 8 14 15 9 15 18 20 18 16 15 14 13 12 13 14 14 13 12 12 11 11 10 9 8 7 6 5 5 7 8 11 12 14
17 22 17 25 14 20 17 15 19 17 17 13 4 9 11 14 14 18 19 16 16 14 13 13 15 15 14 13 12 12 12 10 9 7 6 5 4 5 6 7 9 11 12 14
21 19 17 18 21 19 20 16 14 10 12 14 12 14 10 18 16 16 17 16 15 14 15 13 15 16 14 13 11 11 10 9 8 6 5 4 4 4 5 6 9 11 13 14
22 17 16 16 14 19 13 16 15 10 10 10 10 3 11 12 11 14 16 18 15 15 15 13 16 16 15 13 12 10 9 8 7 5 4 3 4 4 5 7 9 11 13 15
21 10 12 21 19 19 19 19 19 9 13 10 9 2 1 14 15 16 15 20 19 16 14 13 16 15 14 13 11 9 7 6 6 4 3 3 3 4 5 6 9 11 13 15
16 14 11 17 15 13 15 21 14 11 10 11 9 9 6 2 10 15 13 20 17 16 15 13 14 13 12 12 10 8 6 6 4 2 2 2 2 4 6 7 8 10 13 15
7 10 15 12 17 15 19 18 17 14 11 13 14 14 8 9 2 7 8 21 18 14 13 12 10 11 12 11 9 8 6 4 2 1 1 2 4 5 7 7 8 10 11 13
4 11 15 20 23 18 17 20 20 19 14 12 11 7 8 5 9 14 22 13 16 13 14 13 10 10 11 10 8 7 6 1 1 2 2 3 4 6 7 8 8 10 11 12
10 10 14 19 21 21 21 19 23 20 20 19 16 14 11 14 14 17 22 10 16 13 14 13 11 13 11 10 8 7 4 2 0 2 3 3 4 6 8 8 9 9 10 13
15 12 14 19 21 21 21 21 15 15 19 16 15 14 11 12 15 9 3 3 13 15 13 12 10 12 12 11 8 6 4 2 2 4 5 5 5 7 8 10 11 12 11 13
16 15 12 13 17 24 16 18 18 17 12 12 15 12 18 14 9 9 5 5 10 12 12 12 12 13 14 11 8 6 3 3 5 5 5 6 7 9 10 12 11 13 14 14
19 14 12 13 16 18 18 5 12 16 17 11 12 8 16 15 11 10 7 10 12 12 12 13 15 17 14 11 8 6 4 6 4 4 5 7 9 10 12 13 13 14 14 15
5 6 12 14 18 19 4 5 16 2 10 9 12 19 20 15 9 9 10 12 13 16 16 16 18 16 13 10 7 6 5 1 3 5 6 7 9 11 12 14 10 13 16 18
10 2 21 15 10 1 6 7 11 7 1 10 11 8 6 9 11 14 13 12 16 16 17 17 16 14 12 9 6 4 3 3 4 5 6 7 8 10 12 11 13 15 18 20
7 2 13 13 10 7 8 10 11 5 4 10 16 18 20 18 17 16 14 13 15 17 17 15 15 13 10 9 7 3 2 1 3 4 6 8 10 10 11 13 14 18 20 15
12 11 13 8 8 26 16 6 11 10 10 9 16 17 17 18 17 16 14 14 16 16 16 15 13 12 10 6 4 5 2 2 4 6 7 9 10 12 11 15 16 15 15 11
23 9 4 5 14 16 17 13 7 10 12 14 16 16 15 16 16 15 13 13 15 16 14 14 13 11 9 6 5 1 1 3 6 8 10 10 10 12 13 17 16 12 12 8
6 13 17 11 16 19 17 17 15 17 14 16 14 13 16 16 15 14 13 13 16 14 14 13 11 9 8 7 4 1 2 3 6 9 11 9 13 14 17 12 16 11 6 3
7 6 8 1 13 12 5 7 14 15 14 13 12 14 14 15 15 15 13 16 16 14 13 12 10 9 8 6 3 1 2 4 5 9 11 11 12 14 14 14 14 7 5 3
Wind_Direction
204 221 226 233 231 250 271 303 268 250 180 178 243 229 256 254 216 243 244 239 356 40 43 50 355 8 75 148 150 162 177 183 149 155 165 146 137 158 173 220 206 288 330 328
227 225 239 242 250 245 258 279 283 294 192 165 237 274 268 251 270 191 239 46 46 80 84 105 258 194 158 74 84 71 90 117 85 111 108 114 182 191 216 199 305 292 314 350
227 227 217 246 250 237 267 266 261 275 281 172 213 263 274 262 237 179 56 37 55 113 118 136 165 234 73 72 74 80 86 89 73 87 120 148 162 176 205 199 247 338 304 325
232 242 259 210 243 232 241 245 256 268 264 265 200 247 238 239 201 205 120 68 38 87 146 148 127 90 77 77 76 77 85 85 77 86 97 192 72 56 70 17 319 322 318 302
230 232 239 209 248 228 256 260 284 232 262 271 271 271 259 272 164 165 101 82 61 65 90 94 93 95 97 95 84 82 80 84 82 74 79 69 43 50 43 17 333 311 298 246
244 246 223 246 218 242 249 242 265 286 255 251 250 266 264 177 178 123 111 118 124 97 93 95 98 98 99 99 92 80 75 73 75 75 76 71 65 41 19 4 336 352 335 352
234 240 248 215 239 228 227 224 241 233 233 242 238 235 253 108 130 135 141 144 134 125 114 115 119 113 110 108 104 105 103 102 99 92 84 76 65 47 25 12 347 338 334 333
229 226 234 181 226 232 211 225 238 235 223 253 253 233 208 125 114 133 143 146 141 146 136 135 126 130 124 119 113 116 120 119 110 99 87 68 47 42 16 5 349 333 340 330
238 232 224 223 201 235 197 218 245 267 286 288 235 76 115 123 138 138 142 152 150 137 133 134 132 123 126 128 128 127 122 118 116 113 108 88 60 32 16 354 349 346 337 330
246 264 248 221 203 220 250 214 221 238 259 275 254 185 223 162 156 156 157 155 144 138 143 137 138 131 132 129 128 129 129 125 116 107 95 73 60 31 10 357 350 350 345 338
230 253 259 218 197 211 216 243 254 237 236 237 273 154 93 136 179 170 167 151 151 154 144 148 137 138 135 143 138 135 133 131 124 112 94 67 33 16 6 0 352 348 347 345
212 237 238 257 213 212 236 218 232 243 239 260 278 187 262 188 188 178 191 154 152 154 146 144 142 143 148 139 138 132 128 127 108 104 82 54 25 3 353 345 349 347 348 346
207 219 229 256 261 213 219 245 223 232 267 270 264 270 134 95 179 176 193 145 144 144 148 146 144 148 153 143 144 145 146 108 103 75 83 45 347 340 339 338 343 348 350 345
240 209 217 238 243 209 213 229 239 220 212 230 244 269 177 177 102 26 238 132 138 149 147 145 145 154 147 149 156 146 127 124 72 124 328 300 2 334 317 329 340 334 333 340
180 225 214 226 255 268 208 222 229 235 235 248 254 257 140 82 73 55 320 109 139 158 152 144 151 149 147 152 152 150 129 125 208 297 312 329 317 329 321 314 312 326 325 336
214 227 227 236 236 248 260 235 212 222 230 222 229 254 163 143 145 184 221 163 154 152 154 153 154 154 161 165 171 159 148 214 293 290 286 301 318 326 322 315 312 316 321 327
204 200 212 233 237 251 249 248 243 220 224 221 221 103 57 163 190 184 82 8 148 151 152 147 152 152 153 154 148 150 186 199 241 261 293 315 317 319 325 328 319 311 318 319
208 204 209 225 224 236 244 241 231 250 243 222 107 140 161 113 78 71 29 325 118 127 132 134 146 138 132 132 137 152 175 209 241 280 308 325 335 333 333 327 328 347 333 327
201 215 212 226 233 241 237 247 287 233 233 163 116 123 95 103 100 68 46 72 89 105 113 126 134 126 131 138 151 163 192 220 265 313 328 334 333 335 333 333 346 336 327 319
229 341 208 209 238 238 182 348 334 255 212 148 167 165 160 154 189 118 93 90 96 103 112 117 121 129 134 137 154 176 218 251 301 355 333 325 325 327 330 312 333 331 317 309
176 228 247 219 228 231 92 8 10 237 207 38 141 126 127 95 99 118 115 113 115 119 122 125 130 135 141 151 166 177 205 41 1 323 318 315 327 328 315 346 329 311 301 297
173 35 226 222 213 214 177 120 155 225 76 91 92 100 102 109 118 124 124 122 125 127 129 138 135 134 145 159 174 142 80 322 330 329 314 326 328 322 317 325 308 303 300 314
180 166 233 289 244 144 179 162 116 141 136 135 115 119 122 126 128 131 132 134 128 141 143 139 140 149 148 147 138 173 99 356 343 321 325 323 322 324 328 313 312 316 345 5
207 211 201 217 123 131 112 80 58 318 135 122 115 124 131 129 133 133 136 132 145 140 139 147 145 143 148 156 178 205 44 6 332 344 340 338 320 330 315 307 302 321 319 328
23 187 193 235 154 122 137 150 171 190 117 121 126 135 131 136 137 140 137 146 139 148 146 146 151 144 160 177 159 174 38 354 347 346 319 343 343 325 318 328 317 309 315 333
1 6 269 148 127 117 130 174 168 132 122 124 135 122 133 140 141 137 141 141 146 145 146 143 151 173 145 152 146 124 26 357 345 337 346 340 327 306 315 329 331 331 292 352